Location: Unspecified
(48.7670°N, 0.0000°E)
Time: 07:15:57
(UTC+00:00)

S-56A Canister/Altair - Pass Details

Date: 28 October 2019
Orbit: 634 x 2498 km, 38.9° (Epoch: 13 November)

Event Time Altitude Azimuth Distance (km) Brightness Sun altitude
Exits shadow 04:01:00 32° 197° (SSW) 1,826 9.1 -26.6°
Maximum altitude 04:01:30 32° 190° (S) 1,849 9.2 -26.5°
Drops below altitude 10° 04:09:09 10° 131° (SE) 3,690 11.5 -25.3°
Sets 04:13:16 0° 124° (ESE) 5,007 12.4 -24.6°
